Location: ???? ?????
(31.0703°N, 31.7367°E)
Time: 02:03:18
(UTC+00:00)

Daily predictions for brighter satellites

Satellite Brightness Start Highest point End
(mag) Time Altitude Azimuth Time Altitude Azimuth Time Altitude Azimuth
Atlas Centaur 2 4.5 01:01:46 27° ESE 01:01:46 27° ESE 01:06:17 10° E
Cosmos 2369 Rocket 3.8 01:44:35 21° NNE 01:47:26 31° ENE 01:52:26 10° SE
Cosmos 1727 Rocket 4.2 01:57:38 67° ENE 01:57:38 67° ENE 02:03:17 10° N
Cosmos 1140 Rocket 3.8 02:35:51 48° NNW 02:35:51 48° NNW 02:40:00 10° N
Delta 168 4.2 02:35:05 44° SW 02:36:00 48° S 02:40:44 10° ESE
ALOS 3.5 02:31:58 10° NNE 02:36:23 42° E 02:40:47 10° S
Meteor 2-3 Rocket 3.7 02:33:43 10° NNW 02:39:26 64° W 02:45:09 10° S
Cosmos 1954 Rocket 3.9 02:43:16 39° SSW 02:45:15 71° WNW 02:50:35 10° NNE
Cosmos 1484 Rocket 2.7 02:43:26 10° N 02:47:26 90° SW 02:49:24 29° SSW
Cosmos 1943 Rocket 2.1 02:46:54 48° WNW 02:47:49 53° WSW 02:53:09 10° S
Atlas Centaur 2 3.2 02:44:24 33° WSW 02:48:23 68° SSE 02:56:54 10° E
Cosmos 1633 3.2 02:46:38 10° N 02:50:12 55° E 02:53:45 10° SSE
DELTA 2 R/B (1) 4.3 02:52:33 33° NW 02:54:03 40° NNW 02:59:17 10° ENE
Lacrosse 5 1.8 02:53:16 45° WNW 02:54:36 62° SW 02:59:35 10° SSE
USA 267 3.2 02:50:40 10° SE 02:57:12 82° SW 03:02:38 16° NW
GPS 2-05 Rocket1 4.2 02:59:30 21° NE 02:59:30 21° NE 03:00:32 10° ENE
H-2A R/B 3.1 03:00:29 10° N 03:04:37 38° WNW 03:04:59 37° W
NOSS 3-3 (A) 3.9 03:01:40 26° SW 03:04:48 56° WNW 03:10:57 10° NNE
NOSS 3-3 (C) 3.9 03:01:40 25° SW 03:04:55 57° WNW 03:11:04 10° NNE
Centaur D-1A AC-32 3.4 03:04:28 23° SW 03:05:50 29° S 03:11:52 10° SE
Cosmos 1802 Rocket 4.1 03:02:21 10° N 03:08:49 85° E 03:15:11 10° S
Aurora 2 Rocket 3.8 03:09:04 24° WSW 03:11:57 38° SSW 03:16:15 10° SE
FENGYUN 3A 3.6 03:07:31 10° N 03:12:58 79° WNW 03:18:22 10° SSW
Aureole 2 Rocket 3.6 03:14:22 24° SW 03:14:22 24° SW 03:16:11 10° SSW
SJ-12 3.9 03:11:45 10° N 03:15:51 63° WNW 03:19:55 10° SSW
PSLV R/B 3.7 03:12:06 10° N 03:15:51 60° WNW 03:19:41 10° SSW
CZ-2C R/B 4.3 03:14:09 10° NNW 03:15:34 14° NW 03:15:34 14° NW
Meteor PRIRODA 4.2 03:14:18 10° N 03:17:39 35° WNW 03:19:00 26° WSW
Sich 1 3.1 03:13:41 10° N 03:18:00 82° E 03:22:20 10° S
MOS 1-B 4.3 03:13:29 10° NNE 03:19:19 85° WNW 03:25:07 10° SSW
Cosmos 1741 Rocket 4.0 03:15:48 10° SSW 03:21:01 89° ESE 03:26:19 10° NNE
Cosmos 1656 Rocket 3.6 03:16:43 10° NNW 03:22:26 84° WSW 03:28:05 10° SSE
ISS -3.0 03:21:55 30° WNW 03:22:40 34° NW 03:25:46 10° NNE
Cosmos 2016 Rocket 4.0 03:17:37 10° N 03:23:56 87° W 03:30:17 10° S
SKYMED 2 3.5 03:20:02 10° S 03:24:21 79° WSW 03:28:42 10° NNW
Cosmos 1805 Rocket 3.6 03:21:07 10° NNW 03:25:19 53° W 03:29:33 10° S
Cosmos 1933 4.4 03:26:04 10° SSE 03:30:00 49° E 03:33:57 10° NNE
Cosmos 1151 Rocket 3.1 03:26:30 10° S 03:30:47 81° E 03:35:07 10° N
Cosmos 2369 Rocket 3.0 03:26:31 10° NW 03:31:17 28° WSW 03:36:01 10° SSW
Cosmos 1818 4.3 03:26:56 10° SSW 03:32:13 57° ESE 03:37:33 10° NE
Cosmos 1315 Rocket 2.9 03:34:24 10° S 03:38:20 77° E 03:42:16 10° N
OAO 3 Rocket 3.6 03:36:57 10° WSW 03:41:46 63° SSE 03:46:39 10° ENE
Cosmos 1400 Rocket 3.8 03:40:36 10° SW 03:44:00 26° WNW 03:47:28 10° NNW
USA 116 3.0 03:42:29 10° SSE 03:45:39 86° WSW 03:48:46 10° NNW
H-2A R/B 3.6 03:42:16 10° NNE 03:45:54 53° E 03:49:30 10° S
ATLAS 2A CENTAUR R/B 3.0 03:44:47 10° SW 03:47:00 19° S 03:51:19 10° SE
Cosmos 1328 Rocket 3.6 03:43:27 10° SSW 03:47:50 59° W 03:52:13 10° N
Cosmos 921 Rocket 4.3 03:46:21 10° NW 03:49:27 19° W 03:52:29 10° SW
CZ-4B R/B 3.1 03:51:45 10° N 03:56:59 65° WNW 04:02:12 10° SSW
Cosmos 1340 2.6 03:58:00 10° N 04:01:46 82° W 04:05:30 10° S
Okean O Rocket 1.8 03:57:43 10° N 04:01:52 46° WNW 04:06:00 10° SSW
